FW4684 Weather Reports


time (UTC)temp
C
wind
direction
speed
KPH
gust
KPH
rain 1hr
cm
rain 24hr
cm
rain mn
cm
humidity
%
barometer
mb
20260503174511 17 316 3.2 8.0 0.00 0.00 0.00 20 1020.7
20260503174011 17 323 0.0 4.8 0.00 0.00 0.00 20 1020.7
20260503173510 16 335 1.6 17.7 0.00 0.00 0.00 20 1020.8
20260503173007 16 359 4.8 19.3 0.00 0.00 0.00 21 1021.0
20260503172506 16 256 4.8 19.3 0.00 0.00 0.00 20 1021.0
20260503172006 16 46 4.8 17.7 0.00 0.00 0.00 23 1020.9
20260503171503 16 50 3.2 20.9 0.00 0.00 0.00 23 1021.2
20260503171002 16 46 6.4 20.9 0.00 0.00 0.00 22 1021.3
20260503150648 13 316 4.8 19.3 0.00 0.00 0.00 25 1022.8
20260503131036 10 20 4.8 8.0 0.00 0.00 0.00 43 1022.6
20260503130634 9 58 1.6 4.8 0.00 0.00 0.00 44 1022.8
20260503110622 0 40 0.0 1.6 0.00 0.00 0.00 44 1022.0
20260503090104 1 67 0.0 0.0 0.00 0.00 0.00 50 1020.4
20260503081611 1 67 0.0 0.0 0.00 0.00 0.00 53 1019.7
20260503081045 1 67 0.0 0.0 0.00 0.00 0.00 54 1019.7
20260503080546 1 67 0.0 0.0 0.00 0.00 0.00 54 1019.7
20260503072539 2 67 0.0 1.6 0.00 0.00 0.00 57 1019.4
20260503072038 2 67 0.0 1.6 0.00 0.00 0.00 57 1019.4
20260503071536 2 67 0.0 1.6 0.00 0.00 0.00 57 1019.3
20260503071034 2 67 0.0 0.0 0.00 0.00 0.00 57 1019.3
20260503070536 2 67 0.0 1.6 0.00 0.00 0.00 60 1019.2
20260503055023 3 247 0.0 0.0 0.00 0.00 0.00 65 1019.0
20260503054522 3 246 0.0 1.6 0.00 0.00 0.00 66 1019.0
20260503054024 3 246 0.0 1.6 0.00 0.00 0.00 66 1019.1
20260503053520 3 246 0.0 1.6 0.00 0.00 0.00 66 1019.0
20260503053020 3 246 0.0 1.6 0.00 0.00 0.00 65 1019.1
20260503052518 3 240 0.0 0.0 0.00 0.00 0.00 65 1019.1
20260503052017 3 240 0.0 1.6 0.00 0.00 0.00 66 1019.0
20260503051516 3 205 0.0 1.6 0.00 0.00 0.00 66 1019.0
20260503051014 3 317 0.0 4.8 0.00 0.00 0.00 66 1018.9
20260503050514 3 338 0.0 4.8 0.00 0.00 0.00 65 1018.9
20260503050027 3 14 0.0 3.2 0.00 0.00 0.00 66 1018.9
20260503045513 3 274 0.0 0.0 0.00 0.00 0.00 65 1018.9
20260503045018 4 245 0.0 0.0 0.00 0.00 0.00 65 1018.8
20260503044511 4 289 0.0 0.0 0.00 0.00 0.00 65 1018.8
20260503044008 4 158 0.0 0.0 0.00 0.00 0.00 65 1018.7
20260503043510 4 244 0.0 0.0 0.00 0.00 0.00 65 1018.6
20260503043007 4 244 0.0 0.0 0.00 0.00 0.00 65 1018.5
20260503042507 4 243 0.0 0.0 0.00 0.00 0.00 65 1018.4
20260503042005 4 243 0.0 0.0 0.00 0.00 0.00 64 1018.3
20260503041507 5 243 0.0 0.0 0.00 0.00 0.00 64 1018.3
20260503041005 5 247 0.0 0.0 0.00 0.00 0.00 64 1018.2
20260503040502 5 248 0.0 0.0 0.00 0.00 0.00 64 1018.0
20260503040002 5 248 0.0 0.0 0.00 0.00 0.00 64 1018.0
20260503035600 5 248 0.0 0.0 0.00 0.00 0.00 64 1018.0
20260503035059 5 267 0.0 0.0 0.00 0.00 0.00 64 1018.0
20260503034558 5 268 0.0 0.0 0.00 0.00 0.00 62 1017.9
20260503034057 5 53 0.0 0.0 0.00 0.00 0.00 62 1017.9
20260503033554 5 256 0.0 0.0 0.00 0.00 0.00 61 1017.7
20260503033120 5 256 0.0 0.0 0.00 0.00 0.00 61 1017.7
20260503032553 5 256 0.0 0.0 0.00 0.00 0.00 61 1017.7
20260503032051 6 256 0.0 1.6 0.00 0.00 0.00 61 1017.6
20260503031556 6 256 0.0 1.6 0.00 0.00 0.00 60 1017.7
20260503031048 6 256 0.0 1.6 0.00 0.00 0.00 59 1017.6
20260503030550 6 255 0.0 3.2 0.00 0.00 0.00 58 1017.6
20260503025546 6 246 0.0 4.8 0.00 0.00 0.00 57 1017.5
20260503025044 6 246 0.0 1.6 0.00 0.00 0.00 56 1017.6
20260503024556 6 223 0.0 0.0 0.00 0.00 0.00 57 1017.5
20260503024042 7 96 0.0 0.0 0.00 0.00 0.00 56 1017.5
20260503023543 7 162 0.0 3.2 0.00 0.00 0.00 55 1017.4
20260503023039 7 146 0.0 3.2 0.00 0.00 0.00 56 1017.2
20260503022537 7 252 0.0 1.6 0.00 0.00 0.00 54 1017.3
20260503022039 7 271 0.0 3.2 0.00 0.00 0.00 53 1017.2
20260503021534 7 193 0.0 3.2 0.00 0.00 0.00 52 1017.1
20260503021133 7 155 0.0 3.2 0.00 0.00 0.00 52 1017.0
20260503020531 8 228 0.0 3.2 0.00 0.00 0.00 53 1016.9
20260503015529 8 247 0.0 0.0 0.00 0.00 0.00 50 1017.0
20260503015027 8 272 0.0 1.6 0.00 0.00 0.00 48 1016.9
20260503014537 9 271 0.0 1.6 0.00 0.00 0.00 47 1016.8
20260503014022 9 282 0.0 1.6 0.00 0.00 0.00 45 1016.7
20260503013521 10 60 0.0 9.7 0.00 0.00 0.00 42 1016.7
20260503013025 10 60 0.0 9.7 0.00 0.00 0.00 40 1016.7
20260503012520 10 27 1.6 6.4 0.00 0.00 0.00 40 1016.6
20260503012019 10 64 1.6 3.2 0.00 0.00 0.00 40 1016.5
20260503011516 10 73 0.0 3.2 0.00 0.00 0.00 41 1016.4
20260503011016 10 74 0.0 8.0 0.00 0.00 0.00 41 1016.4
20260503010516 10 343 0.0 4.8 0.00 0.00 0.00 42 1016.3
20260503005512 10 333 0.0 1.6 0.00 0.00 0.00 42 1016.0
20260503005011 11 333 0.0 1.6 0.00 0.00 0.00 41 1016.0
20260503004509 11 354 0.0 3.2 0.00 0.00 0.00 37 1016.0
20260503004007 12 354 0.0 4.8 0.00 0.00 0.00 33 1015.7
20260503003506 12 46 1.6 4.8 0.00 0.00 0.00 33 1015.8
20260503003004 12 41 0.0 8.0 0.00 0.00 0.00 32 1015.7
20260503002503 12 39 3.2 11.3 0.00 0.00 0.00 32 1015.5
20260503002002 12 1 3.2 12.9 0.00 0.00 0.00 31 1015.5
20260503001604 12 36 3.2 12.9 0.00 0.00 0.00 31 1015.4
20260503001104 12 17 4.8 17.7 0.00 0.00 0.00 31 1015.3
20260503000658 12 357 4.8 17.7 0.00 0.00 0.00 30 1015.2
20260502235557 12 358 4.8 19.3 0.00 0.00 0.00 31 1015.0
20260502235055 13 304 4.8 19.3 0.00 0.00 0.00 30 1015.0
20260502234611 13 31 6.4 16.1 0.00 0.00 0.00 29 1015.0
20260502234053 13 1 8.0 16.1 0.00 0.00 0.00 29 1015.0
20260502233553 13 15 4.8 20.9 0.00 0.00 0.00 28 1014.9
20260502233106 13 345 3.2 27.4 0.00 0.00 0.00 27 1014.9
20260502232547 13 340 11.3 27.4 0.00 0.00 0.00 27 1014.8
20260502232046 14 326 8.0 19.3 0.00 0.00 0.00 26 1014.7
20260502231559 14 359 12.9 25.7 0.00 0.00 0.00 25 1014.5
20260502231044 15 13 9.7 27.4 0.00 0.00 0.00 25 1014.6
20260502230642 15 340 6.4 27.4 0.00 0.00 0.00 25 1014.5
20260502225544 15 29 8.0 25.7 0.00 0.00 0.00 25 1014.4
20260502225039 15 337 8.0 25.7 0.00 0.00 0.00 24 1014.4
20260502224539 15 6 14.5 29.0 0.00 0.00 0.00 24 1014.5
20260502224038 15 41 4.8 29.0 0.00 0.00 0.00 25 1014.4
20260502223537 15 309 3.2 24.1 0.00 0.00 0.00 25 1014.5
20260502223039 15 356 14.5 32.2 0.00 0.00 0.00 25 1014.4
20260502222537 15 58 19.3 32.2 0.00 0.00 0.00 23 1014.2
20260502222034 15 34 14.5 24.1 0.00 0.00 0.00 24 1014.1
20260502221532 15 29 6.4 24.1 0.00 0.00 0.00 24 1014.1
20260502221035 16 347 9.7 32.2 0.00 0.00 0.00 23 1014.1
20260502220530 16 345 16.1 30.6 0.00 0.00 0.00 23 1014.1
20260502215530 16 40 11.3 30.6 0.00 0.00 0.00 21 1013.9
20260502215031 16 7 12.9 30.6 0.00 0.00 0.00 21 1013.7
20260502214530 16 345 14.5 30.6 0.00 0.00 0.00 21 1013.3
20260502214028 16 58 11.3 29.0 0.00 0.00 0.00 22 1013.3
20260502213527 16 63 9.7 33.8 0.00 0.00 0.00 23 1013.3
20260502213025 16 6 17.7 33.8 0.00 0.00 0.00 21 1013.3
20260502212525 16 316 16.1 27.4 0.00 0.00 0.00 21 1013.1
20260502212025 16 356 11.3 30.6 0.00 0.00 0.00 21 1013.1
20260502211534 16 348 16.1 30.6 0.00 0.00 0.00 21 1013.1
20260502211027 16 42 4.8 24.1 0.00 0.00 0.00 23 1013.2
20260502210522 16 357 11.3 25.7 0.00 0.00 0.00 19 1013.2
20260502205526 16 66 22.5 37.0 0.00 0.00 0.00 19 1013.1
20260502205022 16 319 16.1 37.0 0.00 0.00 0.00 20 1013.2
20260502204521 16 60 9.7 32.2 0.00 0.00 0.00 22 1013.1
20260502204020 16 13 11.3 32.2 0.00 0.00 0.00 19 1013.1
20260502203520 17 322 12.9 29.0 0.00 0.00 0.00 20 1013.2
20260502203018 17 16 1.6 11.3 0.00 0.00 0.00 21 1013.1
20260502202516 17 342 4.8 24.1 0.00 0.00 0.00 19 1013.0
20260502202017 17 25 12.9 20.9 0.00 0.00 0.00 20 1013.0
20260502201516 17 345 6.4 25.7 0.00 0.00 0.00 18 1012.9
20260502201015 16 28 11.3 29.0 0.00 0.00 0.00 20 1013.0
20260502200515 16 345 11.3 29.0 0.00 0.00 0.00 20 1013.2
20260502195512 16 309 9.7 35.4 0.00 0.00 0.00 18 1013.4
20260502195011 16 339 9.7 35.4 0.00 0.00 0.00 17 1013.5
20260502194510 17 51 16.1 32.2 0.00 0.00 0.00 19 1013.3
20260502194009 17 1 12.9 32.2 0.00 0.00 0.00 17 1013.4
20260502193508 17 58 4.8 32.2 0.00 0.00 0.00 20 1013.3
20260502193011 17 297 1.6 30.6 0.00 0.00 0.00 18 1013.4
20260502192505 16 13 16.1 30.6 0.00 0.00 0.00 20 1013.4
20260502192005 16 24 12.9 24.1 0.00 0.00 0.00 18 1013.4
20260502191503 17 63 11.3 37.0 0.00 0.00 0.00 18 1013.6
20260502191002 17 38 8.0 37.0 0.00 0.00 0.00 21 1013.5
20260502190503 17 334 8.0 24.1 0.00 0.00 0.00 19 1013.7
20260502185502 17 354 6.4 25.7 0.00 0.00 0.00 21 1013.4
20260502185001 16 298 3.2 29.0 0.00 0.00 0.00 20 1013.5
20260502184600 17 27 12.9 33.8 0.00 0.00 0.00 19 1013.7
20260502184103 17 344 14.5 33.8 0.00 0.00 0.00 18 1013.5
20260502183559 17 30 4.8 25.7 0.00 0.00 0.00 21 1013.6
20260502183101 16 285 6.4 29.0 0.00 0.00 0.00 20 1013.6
20260502182556 16 53 14.5 29.0 0.00 0.00 0.00 21 1013.6
20260502182056 16 23 3.2 25.7 0.00 0.00 0.00 22 1013.6
20260502181556 16 342 14.5 27.4 0.00 0.00 0.00 22 1013.7
20260502181059 16 359 14.5 27.4 0.00 0.00 0.00 22 1013.7
20260502180554 16 69 11.3 27.4 0.00 0.00 0.00 21 1013.9